Hourly Weather Roundup
Issued by NWS Central Illinois

Home | Current Version | Previous Version | Text Only | Print | Product List | Glossary Off
Versions: 1 2 3 4 5 6 7 8 9 10 11 12 13 14 15 16 17 18 19 20 21 22 23 24 25 26 27 28 29 30 31 32 33 34 35 36 37 38 39 40 41 42 43 44 45 46 47 48 49 50

000
NZUS43 KILX 261410
HWRILX

AREA WEATHER ROUNDUP
NATIONAL WEATHER SERVICE, LINCOLN IL
800 AM CST MON JAN 26 2015


CITY           SKY/WX    TMP DP  RH WIND       PRES   REMARKS
BLOOMINGTON    MOCLDY    20  16  84 W3        29.98F
CHAMPAIGN      CLOUDY    25  20  81 NW8       29.99R WCI  16
DECATUR        MOCLDY    22  21  96 NW9       30.00S WCI  12
FLORA          CLOUDY    27  24  87 NW12      30.02S WCI  17
GALESBURG      CLOUDY    22  19  88 S7        29.98F WCI  13
JACKSONVILLE   CLOUDY    26  21  80 W3        30.04R
LACON          MOCLDY    19  14  80 CALM      30.00S
LAWRENCEVILLE  CLOUDY    29  25  85 NW6       30.00R WCI  23
LITCHFIELD     MOCLDY    24  20  87 NW10      30.04R WCI  13
$$


CITY           SKY/WX    TMP DP  RH WIND       PRES   REMARKS
LINCOLN        CLOUDY    23  18  81 NW3       30.03S
MACOMB         CLOUDY    24  21  89 S3        30.02F
MATTOON        CLOUDY    26  21  81 NW12      29.99R WCI  16
MT CARMEL AP   CLOUDY    32  27  80 NW7       30.00R WCI  26
OLNEY-NOBLE AP CLOUDY    30  27  86 CALM      30.01S
PARIS          CLOUDY    27  23  86 NE7       29.98S WCI  19
PEORIA         CLOUDY    21  15  78 W3        30.01S
PONTIAC        PTCLDY    21  18  87 W3        30.00R
RANTOUL        CLOUDY    26  21  81 NW5       29.99R WCI  20
ROBINSON       CLOUDY    29  25  84 NW6       30.01R WCI  23
SPRINGFIELD    CLOUDY    23  18  81 NW6       30.03R WCI  16
TAYLORVILLE    CLOUDY    23  19  86 NW10      30.03R WCI  12
$$

...REGIONAL REPORTS...


CITY           SKY/WX    TMP DP  RH WIND       PRES   REMARKS
CHICAGO O`HARE MOCLDY    17  14  88 W3        29.96R
KANKAKEE       PTCLDY    21  18  87 CALM      29.99R
MOLINE         CLOUDY    21  14  74 S5        29.96F WCI  15
MOUNT VERNON   CLOUDY    27  18  69 W6        30.04F WCI  20
PITTSFIELD     CLOUDY    28  24  84 SW3       30.05R
QUINCY         CLOUDY    27  22  81 CALM      30.01R
ROCKFORD       CLOUDY    15  11  83 SW5       29.97F WCI   8
$$


CITY           SKY/WX    TMP DP  RH WIND       PRES   REMARKS
BURLINGTON     CLOUDY    25  21  85 S7        29.97F WCI  17
CEDAR RAPIDS   LGT SNOW  23  20  88 S10       29.87F FOG     WCI  12
DES MOINES     MOCLDY    33  27  78 SW17      29.83F WCI  22
KIRKSVILLE     CLOUDY    31  29  92 SW8       29.97F WCI  23
OTTUMWA        CLOUDY    31  28  89 S8        29.92F WCI  23
ST LOUIS       CLOUDY    29  21  72 W9        30.05F WCI  20
$$


CITY           SKY/WX    TMP DP  RH WIND       PRES   REMARKS
TERRE HAUTE    CLOUDY    26  20  77 N10       29.98R WCI  16
EVANSVILLE     CLOUDY    32  25  75 NW5       30.01R WCI  27
INDIANAPOLIS   MOCLDY    20  14  77 N6        29.94R WCI  12
LAFAYETTE      CLEAR     15  11  83 CALM      29.97S
MADISON        CLOUDY    18  10  71 S8        29.92F WCI   8
MILWAUKEE      MOCLDY    20  12  71 CALM      29.95S
$$





USA.gov is the U.S. government's official web portal to all federal, state and local government web resources and services.